Regional Weather Roundup
Issued by NWS Kansas City/Pleasant Hill, MO

Home | Current Version | Previous Version | Graphics & Text | Print | Product List | Glossary Off
Versions: 1 2 3 4 5 6 7 8 9 10 11 12 13 14 15 16 17 18 19 20 21 22 23 24 25 26 27

000
ASUS43 KEAX 221010
RWREAX

WEATHER ROUNDUP FOR EASTERN KANSAS AND NORTHWEST MISSOURI
NATIONAL WEATHER SERVICE KANSAS CITY/PLEASANT HILL MO
500 AM CDT SAT APR 22 2017

KSZ040-057-103>105-MOZ028-029-037-043-221100-
...KANSAS CITY METROPOLITAN AREA...

CITY           SKY/WX    TMP DP  RH WIND       PRES   REMARKS
K.C. INTL      CLOUDY    50  37  61 NE13      30.08S
K.C. DOWNTOWN  CLOUDY    52  35  52 NE17      30.06F
LEES SUMMIT    CLOUDY    50  38  63 NE9       30.07R
OLATHE - IXD   CLOUDY    49  38  65 NE10      30.06S
OLATHE - OJC   CLOUDY    48  40  73 NE9       30.05F
LAWRENCE       CLOUDY    51  39  63 N9        30.08R

$$

MOZ001>008-011>017-020>025-030>033-038>040-044>046-053-054-221100-
...NORTHERN AND CENTRAL MISSOURI...

CITY           SKY/WX    TMP DP  RH WIND       PRES   REMARKS
ST. JOSEPH     CLOUDY    48  40  73 N8        30.12R
MOSBY          CLOUDY    50  36  57 NE8       30.09S
WHITEMAN AFB   LGT RAIN  43  43  99 SE6       30.05F
CLINTON        MIX PCPN  41  39  93 NE18G26   30.06R WCI  32
SEDALIA        NOT AVBL
WARSAW         NOT AVBL
CHILLICOTHE      N/A     49  39  68 N5        30.13R
KIRKSVILLE     CLOUDY    46  38  73 NE9       30.11R

$$

MOZ041-047>049-056>058-063>065-088>090-097-221100-
...EASTERN AND SOUTHERN MISSOURI...

CITY           SKY/WX    TMP DP  RH WIND       PRES   REMARKS
ST. LOUIS INTL CLOUDY    49  36  61 NE13G20   29.97S
SPIRIT OF STL  CLOUDY    49  36  61 NE10      29.98R
COLUMBIA       RAIN      46  37  71 NE21G30   30.06R
JEFFERSON CITY LGT RAIN  47  41  80 NE6       30.06R
ROLLA          LGT RAIN  42  40  92 N14       29.99R WCI  35
OSAGE BEACH    CLOUDY    43  41  93 NE8       30.02R
SPRINGFIELD    LGT RAIN  46  44  93 NE16      29.94R
BRANSON        LGT RAIN  46  46 100 CALM      29.91S
JOPLIN         LGT RAIN  46  46 100 NE14G24   29.97R FOG
WEST PLAINS    CLOUDY    49  48  97 NE3       29.91R FOG

$$

IAZ060-094-KSZ022-034>040-054-083-096-NEZ052-066-093-221100-
...KANSAS...SOUTHEAST NEBRASKA AND IOWA...

CITY           SKY/WX    TMP DP  RH WIND       PRES   REMARKS
TOPEKA         LGT RAIN  51  40  65 NE10      30.09R
MANHATTAN      CLOUDY    50  40  68 N8        30.13R
EMPORIA        CLOUDY    46  43  89 N10       30.07R
CHANUTE        CLOUDY    46  42  86 NE17G25   30.03R
WICHITA        DRIZZLE   47  42  83 N16       30.09R
OMAHA          CLOUDY    42  36  79 N12       30.21R
LINCOLN        CLOUDY    41  37  86 N8        30.22R
FALLS CITY     CLOUDY    48  39  71 N9        30.14R
LAMONI         CLOUDY    45  39  79 N8        30.14S
DES MOINES     CLOUDY    46  35  65 N7        30.17S

$$





USA.gov is the U.S. government's official web portal to all federal, state and local government web resources and services.